TIME,DELAY(SENSOR),PRES,T(CTD),SAL,OXYGEN,RAWTEMP,T(OPTODE),TCPHASE,TURBIDITY,TURBIDITY_GAIN,FLUOR,BETA,CDOM,ED411.5,ED443.8,ED489.6,PAR,COMP,TILT,TILTY(TILT),CHECK
1341640393,6469,241.5899963378906200,4.9128999710083010,34.9860992431640600,350.8153076171875000,761.4744873046875000,4.8846611976623535,34.0760993957519500,16,3,48,110,64,2147246144,2147559656,2147568383,2147363386,2553,0,-12,50716
1341640454,6468,238.1999969482422000,4.9124999046325680,34.9860992431640600,350.6245117187500000,761.4686889648438000,4.8848628997802730,34.0823211669921900,16,3,48,130,64,2147248571,2147557704,2147568388,2147359327,2342,0,-12,50568
1341640515,6468,234.7799987792968800,4.9124999046325680,34.9859008789062500,350.5557861328125000,761.4699707031250000,4.8848190307617190,34.0849685668945300,16,3,48,103,65,2147245142,2147560575,2147570897,2147363007,2105,0,-12,35072
1341640576,6504,231.3000030517578000,4.9123997688293460,34.9859008789062500,350.7504882812500000,761.4744873046875000,4.8846611976623535,34.0783615112304700,16,3,48,103,64,2147248781,2147560392,2147569732,2147362573,1837,0,-12,16027
1341640637,6465,227.7500000000000000,4.9123997688293460,34.9855003356933600,350.6885070800781000,761.4763793945312000,4.8845920562744140,34.0806198120117200,16,3,48,104,64,2147247482,2147558276,2147569004,2147365453,1659,0,-12,61249
1341640698,6469,224.1900024414062500,4.9120998382568360,34.9856986999511700,350.7369079589844000,761.4833984375000000,4.8843498229980470,34.0790596008300800,10,3,48,103,65,2147247779,2147559551,2147572049,2147363273,1367,0,-12,29644
1341640759,6468,220.6999969482422000,4.9119000434875490,34.9858016967773440,350.7626037597656000,761.4890136718750000,4.8841528892517090,34.0782318115234400,16,3,49,103,64,2147246907,2147557658,2147569654,2147362559,1104,0,-12,11999
1341640820,6468,217.2400054931640600,4.9116997718811035,34.9856986999511700,350.7886047363281000,761.4948730468750000,4.8839468955993650,34.0774192810058600,16,3,48,103,64,2147248086,2147559436,2147571954,2147359661,723,0,-12,5553
1341640881,6468,213.8300018310547000,4.9109997749328610,34.9860992431640600,350.7413024902344000,761.5042724609375000,4.8836188316345215,34.0792198181152340,11,3,48,101,63,2147246390,2147558907,2147568306,2147363410,287,0,-12,57590
1341640942,6467,210.4499969482422000,4.9109001159667970,34.9858016967773440,350.8149108886719000,761.5112304687500000,4.8833727836608890,34.0770416259765600,16,3,49,104,64,2147243926,2147559830,2147569371,2147363254,3455,0,-12,10789
1341641005,6465,207.0099945068359400,4.9106001853942870,34.9860000610351560,350.6867065429687500,761.5192871093750000,4.8830909729003910,34.0813102722168000,16,3,48,101,64,2147245842,2147558034,2147567460,2147364355,3138,0,-12,118
1341641066,6467,203.7299957275390600,4.9102001190185550,34.9860992431640600,350.7625122070312500,761.5220947265625000,4.8829960823059080,34.0789108276367200,16,3,48,104,64,2147243680,2147560004,2147571656,2147363748,2845,0,-12,63600
1341641129,6466,200.3800048828125000,4.9103999137878420,34.9858016967773440,350.7153930664062500,761.5307006835938000,4.8826937675476070,34.0804786682128900,16,3,48,105,63,2147246577,2147560895,2147572383,2147360200,2497,0,-12,57349
1341641190,6468,197.1699981689453000,4.9099001884460450,34.9860000610351560,350.8410034179687500,761.5333251953125000,4.8826031684875490,34.0763511657714840,16,3,48,102,64,2147245530,2147560159,2147570499,2147361983,2241,0,-12,28684
1341641253,6467,193.8800048828125000,4.9092001914978030,34.9864006042480500,350.8761901855469000,761.5443725585938000,4.8822140693664550,34.0755882263183600,16,3,50,104,64,2147245682,2147559839,2147571766,2147364328,2006,0,-12,36849
1341641314,6504,190.7400054931640600,4.9099001884460450,34.9856986999511700,350.8198852539062500,761.5446166992188000,4.8822059631347660,34.0775184631347660,16,3,48,106,64,2147245389,2147558825,2147570866,2147363907,1808,0,-11,6706
1341641377,6468,187.5700073242187500,4.9095997810363770,34.9860992431640600,350.7286071777344000,761.5435180664062000,4.8822441101074220,34.0806198120117200,16,3,49,103,64,2147243803,2147561032,2147570642,2147360195,1570,0,-12,37874
1341641438,6467,184.5399932861328000,4.9095001220703125,34.9858016967773440,350.8308105468750000,761.5494995117188000,4.8820362091064450,34.0770988464355500,16,3,48,106,64,2147244228,2147564387,2147570724,2147361270,1381,0,-12,34780
1341641501,6468,181.4199981689453000,4.9093999862670900,34.9859008789062500,350.7633056640625000,761.5521240234375000,4.8819451332092285,34.0795402526855500,16,3,48,111,64,2147247345,2147558796,2147573068,2147362225,1122,0,-12,30163
1341641562,6469,178.4400024414062500,4.9092998504638670,34.9859008789062500,350.8201904296875000,761.5549926757812000,4.8818421363830570,34.0777702331543000,16,3,50,109,64,2147244694,2147558888,2147573942,2147364553,841,0,-12,44210
1341641625,6468,175.3999938964843800,4.9089999198913570,34.9860992431640600,350.6883850097656000,761.5559082031250000,4.8818111419677730,34.0821800231933600,16,3,48,106,63,2147246330,2147558285,2147574522,2147363748,549,0,-12,17268
1341641686,6469,172.4900054931640600,4.9091000556945800,34.9859008789062500,350.6986083984375000,761.5582275390625000,4.8817329406738280,34.0817794799804700,16,3,50,112,64,2147245361,2147559510,2147573627,2147361252,268,0,-12,25102
1341641749,6467,169.5099945068359400,4.9088997840881350,34.9861984252929700,350.7688903808594000,761.5574951171875000,4.8817558288574220,34.0793418884277340,16,3,50,110,65,2147243995,2147561014,2147573869,2147365645,3528,0,-12,32507
1341641810,6467,166.6499938964843800,4.9088997840881350,34.9860000610351560,350.6690979003906000,761.5590209960938000,4.8817038536071780,34.0828590393066400,16,3,50,109,64,2147248342,2147557759,2147573339,2147364987,3193,0,-12,51796
1341641873,6467,163.6900024414062500,4.9088001251220700,34.9860992431640600,350.6227111816406000,761.5601196289062000,4.8816637992858890,34.0842704772949200,16,3,50,132,64,2147244909,2147562280,2147574665,2147361320,2819,0,-12,12988
1341641934,6469,160.8699951171875000,4.9093999862670900,34.9855995178222660,350.7919921875000000,761.5582885742188000,4.8817291259765625,34.0787391662597660,16,3,50,112,64,2147245558,2147557750,2147576479,2147364104,2476,0,-12,39999
1341641997,6467,157.9600067138672000,4.9088997840881350,34.9859008789062500,350.6870117187500000,761.5601196289062000,4.8816661834716800,34.0822982788085940,16,3,49,107,64,2147243350,2147561260,2147575035,2147360790,2264,0,-12,61905
1341642058,6467,155.1600036621093800,4.9092001914978030,34.9855995178222660,350.7546997070312500,761.5587158203125000,4.8817138671875000,34.0798797607421900,16,3,50,108,64,2147246244,2147560689,2147577906,2147365091,2091,0,-12,15199
1341642121,6467,152.3300018310547000,4.9091000556945800,34.9860000610351560,350.5284118652344000,761.5491943359375000,4.8820462226867680,34.0871582031250000,16,3,50,110,64,2147243780,2147560287,2147576776,2147363569,1906,0,-12,51008
1341642182,6467,149.6199951171875000,4.9093999862670900,34.9858016967773440,350.6182861328125000,761.5490722656250000,4.8820481300354000,34.0841598510742200,16,3,50,112,64,2147245366,2147565046,2147577704,2147363771,1705,0,-12,3942
1341642245,6467,146.8899993896484400,4.9088001251220700,34.9864006042480500,350.4471130371094000,761.5504760742188000,4.8820018768310550,34.0900001525878900,16,3,50,113,65,2147244374,2147559592,2147577915,2147364470,1499,0,-12,27960
1341642306,6466,144.2799987792968800,4.9095001220703125,34.9856986999511700,350.5183105468750000,761.5485229492188000,4.8820691108703610,34.0876998901367200,16,3,48,112,64,2147244497,2147562106,2147579313,2147362924,1268,0,-12,41273
1341642369,6467,141.6699981689453000,4.9095997810363770,34.9855995178222660,350.5650024414062500,761.5427856445312000,4.8822689056396480,34.0858116149902340,16,3,50,115,64,2147245325,2147561562,2147579373,2147365041,1000,0,-12,28040
1341642430,6468,139.1399993896484400,4.9099001884460450,34.9858016967773440,350.5232849121094000,761.5339965820312000,4.8825778961181640,34.0871505737304700,16,3,50,114,64,2147242198,2147563314,2147581567,2147366733,823,0,-12,52942
1341642493,6468,136.5800018310547000,4.9095997810363770,34.9860000610351560,350.5180053710937500,761.5300292968750000,4.8827190399169920,34.0874099731445300,16,3,50,114,64,2147241878,2147562092,2147582417,2147362120,528,0,-12,54869
1341642554,6467,134.1399993896484400,4.9100999832153320,34.9858016967773440,350.3888854980469000,761.5252075195312000,4.8828868865966800,34.0917587280273440,16,3,49,116,64,2147244255,2147559117,2147585412,2147362701,70,0,-12,38706
1341642617,6468,131.6300048828125000,4.9102001190185550,34.9856986999511700,350.4269104003906000,761.5200195312500000,4.8830661773681640,34.0901489257812500,16,3,50,118,64,2147248164,2147562760,2147586490,2147365535,3323,0,-12,48402
1341642678,6467,129.2400054931640600,4.9113001823425290,34.9852981567382800,350.2677917480469000,761.5056762695312000,4.8835678100585940,34.0951194763183600,12,3,50,115,64,2147243908,2147561480,2147586290,2147364785,2983,0,-12,52001
1341642768,6465,125.0199966430664000,4.9117999076843260,34.9852981567382800,350.1072082519531000,761.4932861328125000,4.8840007781982420,34.1002693176269500,16,3,50,119,64,2147246381,2147564593,2147587770,2147363313,2533,0,-12,49453
1341642829,6466,121.3000030517578100,4.9127998352050780,34.9856986999511700,349.9939880371094000,761.4591064453125000,4.8852019309997560,34.1033592224121100,16,3,50,119,64,2147245156,2147564758,2147591314,2147365216,2239,0,-12,40952
1341642892,6468,117.3600006103515600,4.9137997627258300,34.9855995178222660,349.9927978515625000,761.4224243164062000,4.8864841461181640,34.1030693054199200,16,3,50,118,64,2147243867,2147564218,2147589837,2147365631,1997,0,-12,33130
1341642953,6468,113.5500030517578100,4.9187002182006840,34.9847984313964840,350.0368041992187500,761.3012084960938000,4.8907279968261720,34.0988006591796900,14,3,50,119,64,2147245480,2147565210,2147594541,2147366285,1734,0,-12,30886
1341643041,6468,108.6500015258789000,4.9215002059936520,34.9847984313964840,349.9659118652344000,761.2188720703125000,4.8936100006103520,34.0996513366699200,16,3,50,121,64,2147244337,2147564287,2147599213,2147368163,1442,0,-12,208
1341643102,6468,106.0800018310546900,4.9237999916076660,34.9846000671386700,349.8876037597656000,761.1530151367188000,4.8959197998046875,34.1010513305664060,16,3,50,126,64,2147242390,2147562883,2147602230,2147365370,1322,0,-12,43335
1341643165,6468,103.5100021362304700,4.9235000610351560,34.9851989746093750,349.9549865722656000,761.1389770507812000,4.8964037895202640,34.0986289978027340,20,3,50,139,64,2147247267,2147563574,2147604890,2147365654,1082,0,-12,51032
1341643226,6468,101.0000000000000000,4.9260001182556150,34.9844017028808600,349.6758117675781000,761.0745239257812000,4.8986630439758300,34.1067199707031250,14,3,50,120,64,2147240539,2147565129,2147607857,2147368753,710,0,-12,41796
1341643289,6466,98.3300018310546900,4.9288997650146480,34.9846000671386700,349.7832946777344000,761.0037841796875000,4.9011402130126950,34.1016387939453100,16,3,50,121,64,2147245078,2147565517,2147614377,2147368027,172,0,-12,62007
1341643350,6468,95.6699981689453100,4.9298000335693360,34.9847984313964840,349.8872985839844000,760.9628906250000000,4.9025712013244630,34.0974006652832000,16,3,50,121,64,2147245151,2147569823,2147621846,2147372488,3335,0,-12,13277
1341643413,6468,92.9199981689453100,4.9345998764038090,34.9842987060546900,349.9309997558594000,760.8411254882812000,4.9068322181701660,34.0931892395019500,16,3,50,121,64,2147248214,2147570020,2147631743,2147371538,2926,0,-11,9849
1341643474,6468,90.2300033569336000,4.9429998397827150,34.9838981628418000,350.2229919433594000,760.6179809570312000,4.9146399497985840,34.0792884826660160,16,3,50,123,64,2147246682,2147574221,2147648534,2147375972,2604,0,-12,7991
1341643537,6468,87.4199981689453100,4.9443001747131350,34.9840011596679700,350.2320861816406000,760.5468750000000000,4.9171309471130370,34.0774116516113300,16,3,50,119,65,2147246656,2147576552,2147660506,2147377539,2380,0,-12,21707
1341643598,6468,84.7300033569336000,4.9465999603271480,34.9849014282226560,350.2135925292969000,760.4583740234375000,4.9202308654785160,34.0764198303222660,16,3,50,128,64,2147248548,2147579240,2147676447,2147380543,2086,0,-12,58541
1341643661,6504,82.0000000000000000,4.9546999931335450,34.9841995239257800,349.9743041992187500,760.2595214843750000,4.9271907806396480,34.0805587768554700,16,3,50,123,64,2147248035,2147580351,2147698377,2147385668,1779,0,-12,35037
1341643722,6465,79.3399963378906200,4.9633998870849610,34.9841995239257800,349.9184875488281000,760.0195922851562000,4.9355850219726560,34.0776710510253900,16,3,51,124,64,2147246801,2147582724,2147706893,2147386230,1718,0,-12,47825
1341643785,6468,76.6900024414062500,4.9703998565673830,34.9845008850097660,349.6697082519531000,759.8118286132812000,4.9428539276123050,34.0819091796875000,19,3,52,125,65,2147246450,2147586157,2147726664,2147390993,1589,0,-12,29641
1341643846,6468,74.1900024414062500,5.0005002021789550,34.9846992492675800,349.3204956054687500,759.0140991210938000,4.9707579612731930,34.0779914855957000,16,3,54,128,64,2147250655,2147592041,2147741901,2147395258,1443,0,-12,34507
1341643909,6468,71.6999969482421900,5.0327000617980960,34.9851989746093750,349.1142883300781000,758.1248168945312000,5.0018558502197270,34.0672187805175800,16,3,54,133,64,2147251588,2147590788,2147754989,2147400072,1233,0,-12,33496
1341643970,6468,69.2900009155273400,5.0423998832702640,34.9859008789062500,349.2550048828125000,757.7805175781250000,5.0138931274414060,34.0557708740234400,16,3,55,129,66,2147250605,2147594285,2147765837,2147404305,729,0,-12,1729
1341644058,6469,65.1800003051757800,5.0942997932434080,34.9865989685058600,348.9714965820312500,756.2036743164062000,5.0689888000488280,34.0341606140136700,13,3,62,137,66,2147253238,2147603350,2147799016,2147411881,426,0,-12,35447
1341644119,6468,61.5699996948242200,5.1276001930236820,34.9879989624023440,349.1133117675781000,755.3732299804688000,5.0979981422424320,34.0133018493652340,30,3,64,137,65,2147255094,2147613850,2147835555,2147425585,3465,0,-12,49546
1341644182,6467,57.9099998474121100,5.2262997627258300,34.9903984069824200,348.9320983886719000,752.6630859375000000,5.1925811767578125,33.9661598205566400,16,3,75,148,66,2147261664,2147623524,2147869183,2147435519,2965,0,-12,12173
1341644243,6469,54.4900016784668000,5.2817001342773440,34.9912986755371100,349.3674926757812500,751.0681762695312000,5.2481899261474610,33.9203109741210940,16,3,86,148,64,2147268333,2147631990,2147904790,2147449156,2807,0,-12,19990
1341644306,6504,50.9700012207031250,5.2986001968383790,34.9930992126464840,349.9659118652344000,750.1286010742188000,5.2809348106384280,33.8819389343261700,16,3,98,162,65,2147274299,2147648996,2147950508,2147468264,2675,0,-12,14293
1341644367,6469,47.5999984741210940,5.4271001815795900,34.9958992004394500,350.5006103515625000,746.9251708984375000,5.3924708366394040,33.8017082214355500,18,3,134,164,65,2147282184,2147668081,2148017060,2147489439,2342,0,-12,33008
1341644430,6469,44.0699996948242200,5.4885997772216800,34.9981002807617200,351.6380004882812500,745.4094848632812000,5.4451937675476070,33.7342910766601560,29,3,159,181,66,2147288356,2147693928,2148102769,2147528790,1980,0,-12,53070
1341644491,6468,40.6300010681152340,5.6255002021789550,34.9990005493164060,352.0006103515625000,741.1047973632812000,5.5947461128234860,33.6394691467285160,27,3,213,238,64,2147319958,2147740393,2148247803,2147580301,2187,0,-12,59101
1341644554,6471,37.1100006103515600,5.7091999053955080,35.0021018981933600,353.9346008300781000,738.8463134765625000,5.6731028556823730,33.5321083068847660,33,3,236,259,64,2147361009,2147810550,2148427153,2147656886,2088,0,-12,5750
1341644615,6468,33.8100013732910160,5.9354000091552730,35.0009994506835940,354.6160888671875000,733.6804199218750000,5.8520488739013670,33.4114685058593750,40,3,319,346,66,2147425371,2147918550,2148727131,2147779962,1589,0,-12,36828
1341644678,6469,30.5799999237060550,6.0602002143859860,35.0045013427734400,357.4101867675781000,728.9218750000000000,6.0165481567382810,33.2303085327148440,49,3,435,414,65,2147519163,2148064845,2149086097,2147930682,1232,0,-12,2416
1341644739,6469,27.5599994659423830,6.2428998947143555,35.0063018798828100,359.6503906250000000,722.6423950195312000,6.2331352233886720,33.0402793884277340,86,3,529,506,66,2147653252,2148244525,2149400287,2148065969,1074,0,-12,48116
1341644802,6471,24.6399993896484380,6.6048998832702640,35.0060997009277340,364.5512084960937500,712.0772705078125000,6.5962958335876465,32.6891288757324200,80,3,644,647,66,2147940040,2148620904,2150075994,2148346280,1067,0,-11,56099
1341644863,6470,22.0200004577636720,7.0721998214721680,35.0057983398437500,370.1098022460937500,699.6679077148438000,7.0209078788757320,32.2911186218261700,94,3,688,690,65,2148422258,2149266770,2151267414,2148849160,719,0,-12,30739
1341644926,6471,19.4099998474121100,7.3021001815795900,35.0154991149902340,378.7669982910156000,692.8925170898438000,7.2518692016601560,31.9064197540283200,106,3,701,775,65,2149083770,2150113755,2152633178,2149464137,709,2,-11,42027
1341644987,6470,16.9099998474121100,7.9261999130249020,35.0093994140625000,381.8931884765625000,675.0947265625000000,7.8557190895080570,31.5038299560546880,106,3,727,787,64,2149748763,2150775199,2153154646,2149727752,419,1,-11,54492
1341645050,6470,14.2899999618530270,8.6183996200561520,35.0260009765625000,386.7662963867187500,655.0452880859375000,8.5311756134033200,31.0222892761230470,134,3,772,809,66,2151100260,2152202463,2154711007,2150467144,850,1,-10,8473
1341645111,6471,12.2899999618530270,9.3843002319335940,35.0261993408203100,385.5862121582031000,631.2869873046875000,9.3253250122070310,30.6668605804443360,116,3,778,832,64,2152724767,2154004557,2156892236,2151520013,1176,-1,-10,21857
1341645350,6469,10.4300003051757810,11.0925998687744140,35.0521011352539060,363.0917968750000000,578.0214843750000000,11.0830097198486330,30.4964809417724600,127,3,558,719,62,2154848283,2156427007,2159783428,2153058120,1996,3,-12,26701
1341645431,6469,7.8699998855590820,11.1076002120971680,35.0572013854980500,361.7582092285156000,577.4429931640625000,11.1019401550292970,30.5284309387207030,111,3,525,739,63,2157698669,2159291624,2162256931,2154739496,2155,-2,-14,27385
1341645496,6470,5.0199999809265140,11.1063995361328120,35.0577011108398440,361.5625000000000000,577.4183959960938000,11.1027498245239260,30.5339393615722660,106,3,504,630,64,2164660845,2166518157,2169338047,2159622413,2250,-26,-10,49776
1341645546,6467,3.4000000953674316,11.1055002212524410,35.0581016540527340,361.7427978515625000,577.4168090820312000,11.1028003692626950,30.5283393859863280,109,3,494,645,62,2168961773,2170760141,2173029768,2163130052,2195,1,-5,52732
1341645594,6470,2.4900000095367430,0.0000000000000000,0.0000000000000000,361.5974121093750000,577.4163208007812000,11.1028099060058600,30.5328807830810550,113,3,485,647,62,2170891519,2172667162,2174541321,2165097380,2758,9,8,13413
1341645635,6467,0.8000000119209290,0.0000000000000000,0.0000000000000000,361.6267089843750000,577.4215698242188000,11.1026401519775390,30.5321407318115230,118,3,477,684,63,2175948667,2177529471,2178072977,2171237563,853,0,-16,45159
